Welcome to the New NWS' Forecast!
Most changes are behind the scenes, but click here for differences you might notice.
Latest weather observations around

Monticello, Monticello Municipal Airport/Ellis Field (KLLQ)

Using English Units (Switch to International System of Units)
Date/ Time (CDT) Wind (mph) Vis. (mi) Weather Sky Cond. Temp (°F) Rel. Humidity Wind Chill (°F) Heat Index (°F) Pressure Precip. (in)
Air Dwpt 6 hour Altimeter (inHg) Sea level (inHg) 1 hr 3 hr 6 hr
Max Min
Jun 25 00:53 Calm 10 Clear CLR 71 65     81%   72 30.17 30.16      
Jun 24 23:53 3 10 Clear CLR 72 65     79%   73 30.16 30.15      
Jun 24 22:53 5 10 Clear CLR 73 65     76%   74 30.15 30.14      
Jun 24 21:53 Calm 10 Clear CLR 73 66     79%   74 30.14 30.13      
Jun 24 20:53 Calm 10 Clear CLR 75 65     71%   76 30.12 30.11      
Jun 24 19:53 N 3 10 Clear CLR 76 67     74%   77 30.11 30.1      
Jun 24 18:53 N 5 10 Clear CLR 78 67     69%   79 30.1 30.09      
Jun 24 17:53 5 10 Clear CLR 80 66     62%   82 30.09 30.08      
Jun 24 16:53 5 10 Clear CLR 81 65     58%   83 30.08 30.07      
Jun 24 15:53 N 5 10 Mostly Cloudy BKN070 82 66     58%   84 30.09 30.07      
Jun 24 14:53 NE 7 10 Clear CLR 82 67     60%   85 30.09 30.08      
Jun 24 13:53 NE 6 10 Clear CLR 82 67     60%   85 30.1 30.09      
Jun 24 12:53 6 10 Clear CLR 79 67     67%   80 30.12 30.1      
Jun 24 11:53 N 6 10 Clear CLR 78 67     69%   79 30.11 30.1      
Jun 24 10:53 6 10 Clear CLR 79 67     67%   80 30.11 30.09      
Jun 24 09:53 6 10 Cloudy OVC065 76 67     74%   77 30.09 30.08      
Jun 24 08:53 7 10 Cloudy OVC060 73 68     84%   74 30.09 30.08      
Jun 24 07:53 Calm 10 Cloudy SCT032 SCT040 OVC060 72 69     91%   73 30.07 30.06      
Jun 24 07:19 3 10 Cloudy OVC030 71 69     93%   72 30.07        
Jun 24 07:06 Calm 10 Cloudy BKN029 OVC060 71 69     93%   72 30.06        
Jun 24 06:53 Calm 10 Cloudy FEW029 OVC060 71 69     93%   72 30.06 30.05      
Jun 24 05:53 3 10 Cloudy FEW003 OVC055 71 69     93%   72 30.04 30.03      
Jun 24 05:23 3 8 Cloudy FEW003 OVC060 71 69     93%   72 30.04        
Jun 24 04:53 Calm 9 Cloudy SCT070 OVC085 70 69     97%     30.02 30.01      
Jun 24 03:28 W 5 9 Partly Cloudy FEW002 SCT075 70 68     93%     29.98        
Jun 24 02:53 Calm 10 Clear CLR 70 69     97%     29.98 29.97      
Jun 24 01:53 Calm 10 Mostly Cloudy BKN075 71 69     93%   72 29.97 29.96      
Jun 24 00:53 Calm 10 Mostly Clear FEW070 71 69     93%   72 29.97 29.96     0
Jun 24 00:11 Calm 10 Partly Cloudy SCT002 71 69     93%   72 29.97        
Jun 23 23:53 Calm 10 Mostly Cloudy BKN002 71 69     93%   72 29.96 29.95      
Jun 23 22:53 W 7 10 Mostly Clear FEW003 71 69     93%   72 29.92 29.92      
Jun 23 21:53 Calm 10 Clear   71 69     93%   72 29.89 29.88 0 0  
Jun 23 21:28 Calm 10 Light Rain FEW004 SCT065 BKN110 71 69     93%   72 29.92   0    
Jun 23 20:53 3 7 Light Rain FEW080 OVC100 71 69     93%   72 29.95 29.94 0    
Jun 23 20:12 Calm 6 Light Rain and Fog/Mist FEW046 BKN075 OVC090 71 68     90%   72 29.98   0    
Jun 23 20:05 5 7 Rain FEW043 BKN060 OVC085 71 68     90%   72 29.97   0    
Jun 23 19:53 3 2 Heavy Rain and Fog/Mist FEW006 BKN036 OVC060 71 68     90%   72 29.97   0    
Jun 23 19:45 6 2 Rain and Fog/Mist FEW005 BKN016 OVC055 71 69     93%   72 29.97   0    
Jun 23 19:38 6 1 Thunderstorms and Heavy Rain and Fog/Mist FEW005 BKN020 OVC033 71 69     93%   72 29.96   0    
Jun 23 19:35 10 1 Thunderstorms and Heavy Rain and Fog/Mist FEW006 BKN013 OVC033 71 69     93%   72 29.95   0    
Jun 23 19:29 11 2.5 Thunderstorms and Heavy Rain SCT012 BKN018 OVC090 73 68     84%   74 29.96   0    
Jun 23 18:53 W 3 10 Cloudy FEW017 BKN023 OVC090 84 78     82%   95 29.88 29.87     0
Jun 23 18:45 W 3 10 Mostly Cloudy BKN020 85 78     80%   97 29.87        
Jun 23 17:53 W 8 10 Partly Cloudy SCT017 85 78     80%   97 29.84 29.83      
Jun 23 16:53 9 10 Mostly Clear FEW014 FEW020 84 77     80%   94 29.83 29.82      
Jun 23 16:48 7 10 Partly Cloudy SCT017 84 77     79%   94 29.83        
Jun 23 16:38 SW 8 10 Mostly Cloudy BKN017 84 77     80%   94 29.83        
Jun 23 16:17 SW 8 10 Mostly Cloudy BKN013 BKN018 83 77     82%   92 29.84        
Jun 23 15:53 SW 10 10 Clear CLR 82 76     82%   89 29.83 29.82   0  
Jun 23 15:32 SW 8 10 Partly Cloudy SCT012 82 76     82%   89 29.82        
Jun 23 15:22 SW 10 10 Mostly Cloudy BKN011 81 76     85%   87 29.82        
Jun 23 14:53 SW 7 10 Mostly Clear FEW010 81 76     85%   87 29.82 29.81      
Jun 23 14:35 SW 8 10 Partly Cloudy SCT010 81 76     85%   87 29.83        
Jun 23 13:53 SW 11 10 Mostly Cloudy BKN011 80 76     87%   85 29.84 29.83 0    
Jun 23 13:31 SW 9 10 Mostly Cloudy BKN011 79 75     88%   83 29.84   0    
Jun 23 13:14 10 10 Cloudy BKN009 OVC045 78 75     90%   80 29.85   0    
Jun 23 12:53 10 8 Light Rain FEW009 BKN033 OVC055 77 75     94%   79 29.85 29.83 0   0
Jun 23 12:36 10 10 Cloudy FEW007 BKN025 OVC034 77 74     90%   79 29.84        
Jun 23 11:53 SW 10 10 Cloudy BKN009 OVC020 76 73     91%   77 29.84 29.83 0    
Jun 23 10:53 SW 14 6 Light Rain and Fog/Mist BKN008 BKN012 OVC022 75 73     94%   77 29.83 29.82 0    
Jun 23 09:53 SW 14 10 Cloudy OVC008 75 72     90%   76 29.82 29.81 0 0  
Jun 23 08:53 SW 13 10 Light Rain OVC009 75 72     90%   76 29.81 29.79 0    
Jun 23 07:53 SW 14 10 Light Rain BKN009 BKN013 OVC036 74 71     91%   75 29.78 29.77 0    
Jun 23 07:25 SW 15 10 Light Rain BKN008 BKN013 OVC030 74 71     91%   75 29.77   0    
Jun 23 07:14 13 6 Light Rain and Fog/Mist BKN010 OVC030 74 71     91%   75 29.76   0    
Jun 23 06:53 17 9 Light Rain BKN009 BKN013 OVC030 74 71     91%   75 29.75 29.74 0   3
Jun 23 05:53 17 3 Heavy Rain and Fog/Mist OVC007 75 72     90%   76 29.72 29.71 0    
Jun 23 05:05 23 10 Cloudy and Windy BKN007 OVC011 76 73     91%   77 29.69   0    
Jun 23 04:53 20 10 Light Rain BKN007 OVC011 76 73     91%   77 29.68 29.67 1    
Jun 23 04:40 22 10 Thunderstorms OVC008 76 74     94%   78 29.67   1    
Jun 23 04:23 6 3 Heavy Rain and Fog/Mist OVC009 76 74     94%   78 29.67   1    
Jun 23 04:17 S 16 2.5 Thunderstorms and Heavy Rain and Fog/Mist BKN009 OVC014 76 74     94%   78 29.67   1    
Jun 23 04:04 SW 13 0.75 Thunderstorms and Heavy Rain and Fog/Mist BKN009 OVC016 76 74     94%   78 29.68   0    
Jun 23 03:53 SW 9 1 Thunderstorms and Heavy Rain and Fog/Mist SCT007 BKN011 OVC024 76 74     94%   78 29.67 29.66 1 2  
Jun 23 03:50 9 1.75 Thunderstorms and Heavy Rain and Fog/Mist BKN007 BKN016 OVC026 75 73     94%   77 29.68   1    
Jun 23 03:45 SW 14 2.5 Rain and Fog/Mist BKN008 BKN012 OVC023 76 74     94%   78 29.67   1    
Jun 23 03:38 SW 13 2.5 Heavy Rain and Fog/Mist BKN006 OVC026 76 73     91%   77 29.67   1    
Jun 23 03:29 20 4 Light Rain and Fog/Mist SCT006 BKN010 OVC024 76 74     94%   78 29.67   1    
Jun 23 03:27 18 3 Thunderstorms and Rain and Fog/Mist BKN008 OVC026 76 74     94%   78 29.67   0    
Jun 23 03:21 21 1.25 Thunderstorms and Heavy Rain and Fog/Mist OVC008 76 74     94%   78 29.66   0    
Jun 23 03:14 S 21 1 Thunderstorms and Heavy Rain and Fog/Mist BKN006 OVC011 76 74     94%   78 29.65   0    
Jun 23 03:05 16 1.75 Heavy Rain and Fog/Mist BKN009 OVC014 76 74     94%   78 29.66   0    
Jun 23 02:53 16 4 Rain and Fog/Mist BKN008 OVC014 76 74     94%   78 29.66 29.65 0    
Jun 23 02:45 16 3 Rain and Fog/Mist BKN008 OVC013 76 74     94%   78 29.66   0    
Jun 23 02:38 S 16 2 Heavy Rain and Fog/Mist FEW006 BKN010 OVC021 76 74     94%   78 29.65   0    
Jun 23 02:34 S 17 1.75 Heavy Rain and Fog/Mist BKN008 BKN013 OVC021 76 74     94%   78 29.65   0    
Jun 23 02:17 S 15 3 Rain and Fog/Mist SCT008 BKN012 OVC021 76 74     94%   78 29.66   0    
Jun 23 02:10 S 15 2 Heavy Rain and Fog/Mist BKN008 BKN013 OVC021 76 74     94%   78 29.66   0    
Jun 23 01:53 S 14 6 Light Rain and Fog/Mist BKN008 OVC014 76 74     94%   78 29.66 29.65 0    
Jun 23 01:26 20 3 Heavy Rain and Fog/Mist BKN007 OVC013 76 74     94%   78 29.66   0    
Jun 23 01:09 17 1.75 Heavy Rain and Fog/Mist BKN007 OVC013 76 74     94%   78 29.66   0    
Jun 23 00:53 15 7 Light Rain BKN007 BKN012 OVC020 77 74     90%   79 29.65 29.64 0   1
Jun 23 00:46 17 5 Light Rain and Fog/Mist BKN007 BKN012 OVC020 77 74     90%   79 29.65   0    
Jun 23 00:35 14 2 Heavy Rain and Fog/Mist BKN008 OVC014 77 74     90%   79 29.65   0    
Jun 23 00:27 S 13 3 Rain and Fog/Mist BKN008 OVC013 77 74     90%   79 29.64   0    
Jun 23 00:08 13 3 Heavy Rain and Fog/Mist SCT008 BKN013 OVC020 77 74     90%   79 29.63   0    
Jun 22 23:59 14 1.25 Heavy Rain and Fog/Mist FEW009 BKN015 OVC022 77 74     90%   79 29.63   0    
Jun 22 23:53 14 2 Heavy Rain and Fog/Mist BKN015 OVC022 78 74     87%   80 29.63 29.62 0    
Jun 22 22:53 15 10 Cloudy BKN017 OVC023 79 74     85%   83 29.65 29.64      
Jun 22 22:38 11 10 Cloudy SCT014 BKN020 OVC027 78 74     87%   80 29.65        
Notice The following observation data may not be complete
Jun 22 22:13   10 Cloudy BKN014 OVC020          %              
Jun 22 22:01 11 10 Cloudy SCT014 BKN019 OVC042 78 74     87%   80 29.66        
Jun 22 21:53 10 10 Cloudy BKN014 BKN019 OVC042 78 74     87%   80 29.66 29.65   0  
Jun 22 20:53 10 10 Cloudy FEW017 BKN023 OVC036 78 75     90%   80 29.64 29.63 0    
Jun 22 20:36 S 11 10 Light Rain FEW019 BKN026 OVC038 78 75     90%   80 29.64   0    
Jun 22 20:11 9 10 Cloudy SCT018 SCT035 OVC050 79 75     88%   83 29.64   0    
Jun 22 20:03 S 11 3 Light Rain and Fog/Mist FEW016 BKN022 OVC060 79 75     88%   83 29.63   0    
Jun 22 19:53 7 1.5 Heavy Rain and Fog/Mist FEW013 BKN020 OVC039 79 75     88%   83 29.63 29.61 0    
Jun 22 19:16 6 10 Cloudy SCT020 BKN029 OVC043 80 75     85%   85 29.63        
Jun 22 18:53 9 10 Cloudy SCT016 SCT027 OVC043 80 75     85%   85 29.63 29.62     0
Jun 22 17:53 6 10 Mostly Cloudy SCT017 BKN027 BKN055 81 75     82%   87 29.64 29.62      
Jun 22 17:26 10 10 Mostly Cloudy SCT015 BKN021 BKN055 83 76     79%   91 29.64        
Jun 22 17:08 10 10 Mostly Cloudy SCT015 BKN050 BKN065 82 76     82%   89 29.65        
Jun 22 16:53 11 10 Cloudy BKN015 BKN055 OVC085 81 76     85%   87 29.65 29.64 0    
Jun 22 16:00 E 13 10 Light Rain FEW013 BKN024 OVC033 80 77     90%   86 29.66   0    
Jun 22 15:53 E 11 3 Light Rain and Fog/Mist SCT018 BKN031 OVC043 80 77     90%   86 29.66 29.65 0 0  
Jun 22 15:49 8 2.5 Rain and Fog/Mist FEW018 BKN026 OVC043 81 77     89%   87 29.66   0    
Jun 22 14:53 9 10 Light Rain FEW031 BKN095 OVC110 80 77     90%   86 29.67 29.66 0    
Jun 22 13:53 E 8 10 Light Rain FEW049 SCT065 OVC090 80 76     87%   85 29.7 29.69 0    
Jun 22 12:53 8 10 Mostly Clear FEW026 83 75     77%   90 29.72 29.7     0
Jun 22 12:11 9 10 Mostly Cloudy SCT022 SCT033 BKN060 84 75     74%   92 29.73        
Jun 22 11:53 13 10 Mostly Cloudy BKN020 BKN026 BKN031 84 74     72%   91 29.74 29.73      
Jun 22 11:01 9 10 Mostly Cloudy FEW018 BKN023 BKN036 83 76     79%   91 29.76        
Jun 22 10:53 13 10 Cloudy FEW019 BKN037 OVC065 82 76     82%   89 29.76 29.75 0    
Jun 22 09:53 11 10 Cloudy BKN018 OVC027 81 74     79%   86 29.77 29.76      
Jun 22 09:02 9 10 Cloudy FEW013 BKN019 OVC027 79 74     85%   83 29.78        
Jun 22 08:53 E 9 10 Cloudy BKN013 OVC021 79 74     85%   83 29.78 29.77      
Jun 22 08:30 E 7 10 Cloudy FEW007 OVC012 78 74     87%   80 29.78        
Jun 22 07:53 E 9 10 Cloudy OVC010 76 74     94%   78 29.78 29.76      
Jun 22 07:33 E 8 10 Cloudy FEW008 BKN012 OVC021 76 73     91%   77 29.78        
Jun 22 06:53 E 8 10 Cloudy FEW010 BKN016 OVC021 75 73     94%   77 29.77 29.76      
Jun 22 06:31 7 10 Cloudy BKN014 OVC021 75 73     94%   77 29.77        
Jun 22 06:13 7 10 Cloudy OVC015 75 73     94%   77 29.77        
Jun 22 05:53 7 10 Cloudy OVC013 75 73     94%   77 29.77 29.75      
Jun 22 05:43 8 10 Cloudy OVC013 75 73     94%   77 29.77        
Jun 22 04:53 8 10 Cloudy SCT007 OVC019 75 73     94%   77 29.77 29.76      
Jun 22 04:23 8 10 Cloudy SCT005 BKN023 OVC031 75 73     94%   77 29.76        
Jun 22 03:53 E 8 10 Cloudy OVC008 75 73     94%   77 29.76 29.75      
Jun 22 02:53 E 8 10 Cloudy BKN007 OVC012 75 73     94%   77 29.78 29.77      
Jun 22 01:53 E 11 5 Fog/Mist BKN009 OVC013 75 73     94%   77 29.79 29.78      
Jun 22 01:31 9 6 Fog/Mist BKN009 OVC013 75 73     94%   77 29.8        
Jun 22 00:53 10 10 Cloudy BKN014 OVC020 75 73     94%   77 29.81 29.8     0
Jun 22 00:26 8 10 Cloudy FEW009 BKN022 OVC027 75 73     94%   77 29.82        
Jun 22 00:07 8 10 Cloudy FEW009 BKN014 OVC027 75 73     94%   77 29.82        
Jun 21 23:58 8 10 Cloudy FEW009 OVC016 75 73     94%   77 29.83        
Jun 21 23:53 E 9 10 Cloudy OVC013 75 73     94%   77 29.83 29.82      
Jun 21 23:29 9 10 Cloudy BKN011 OVC018 75 73     94%   77 29.83        
Jun 21 23:20 9 10 Cloudy SCT009 OVC016 75 73     94%   77 29.83        
Jun 21 22:53 8 10 Cloudy BKN009 OVC014 75 73     94%   77 29.84 29.83      
Jun 21 22:45 E 9 10 Cloudy BKN009 OVC015 75 73     94%   77 29.84        
Jun 21 22:31 11 10 Cloudy BKN011 OVC020 75 73     94%   77 29.84        
Jun 21 21:53 8 10 Cloudy BKN007 OVC013 75 73     94%   77 29.84 29.83   0  
Jun 21 21:49 8 10 Cloudy SCT007 OVC013 73 73     100%   75 29.84        
Jun 21 21:01 9 10 Cloudy BKN008 OVC011 74 72     94%   75 29.84        
Jun 21 20:53 9 10 Cloudy FEW006 BKN010 OVC018 74 73     97%   76 29.84 29.83 0    
Jun 21 20:39 E 9 4 Light Rain and Fog/Mist BKN006 BKN010 OVC038 74 73     97%   76 29.85   0    
Jun 21 20:36 8 1.75 Light Rain and Fog/Mist BKN006 OVC018 74 72     94%   75 29.85   0    
Jun 21 20:25 E 10 1.75 Rain and Fog/Mist OVC008 74 72     94%   75 29.85   0    
Jun 21 19:53 8 10 Cloudy OVC008 75 72     90%   76 29.86 29.84      
Jun 21 19:34 9 10 Cloudy OVC008 74 72     94%   75 29.86        
Jun 21 18:53 E 9 4 Fog/Mist BKN006 OVC009 74 72     94%   75 29.86 29.85 0   0
Jun 21 18:29 10 3 Fog/Mist OVC006 74 72     94%   75 29.85   0    
Jun 21 17:59 13 2.5 Fog/Mist BKN006 OVC012 74 72     94%   75 29.86        
Jun 21 17:53 13 4 Fog/Mist BKN007 OVC012 74 72     94%   75 29.86 29.85 0    
Jun 21 17:40 11 6 Fog/Mist BKN008 OVC013 75 72     90%   76 29.86   0    
Jun 21 17:05 11 4 Light Rain and Fog/Mist SCT006 BKN010 OVC028 75 73     94%   77 29.87   0    
Jun 21 16:53 E 11 2 Light Rain and Fog/Mist FEW006 BKN014 OVC025 75 73     94%   77 29.87 29.86 0    
Jun 21 16:49 13 1.5 Rain and Fog/Mist FEW008 BKN016 OVC025 75 73     94%   77 29.87   0    
Jun 21 16:43 E 13 1.75 Light Rain and Fog/Mist BKN014 BKN019 OVC026 75 72     90%   76 29.88   0    
Jun 21 15:53 E 13 10 Cloudy BKN016 OVC023 78 71     79%   79 29.89 29.88      
Jun 21 14:53 E 10 10 Cloudy BKN021 OVC027 79 70     74%   82 29.91 29.9      
Jun 21 13:53 18 10 Cloudy OVC027 82 70     67%   86 29.92 29.91      
Jun 21 13:01 E 13 10 Cloudy BKN027 OVC033 80 69     69%   83 29.92        
Jun 21 12:53 E 15 10 Cloudy SCT025 OVC031 80 69     69%   83 29.93 29.91      
Jun 21 12:29 E 13 10 Mostly Cloudy BKN023 81 70     69%   84 29.93        
Jun 21 11:53 E 14 10 Partly Cloudy SCT020 81 70     69%   84 29.94 29.93      
Jun 21 10:53 E 14 10 Partly Cloudy SCT020 80 70     71%   83 29.95 29.94      
Jun 21 10:30 11 10 Partly Cloudy SCT018 79 70     74%   82 29.95        
Jun 21 10:00 E 13 10 Mostly Cloudy BKN015 BKN024 78 70     76%   79 29.96        
Jun 21 09:53 11 10 Partly Cloudy SCT015 78 70     76%   79 29.95 29.94      
Jun 21 09:08 E 9 10 Partly Cloudy SCT012 77 70     79%   78 29.96        
Jun 21 08:53 9 10 Mostly Cloudy BKN012 77 71     82%   78 29.96 29.95      
Jun 21 07:53 NE 8 10 Mostly Clear FEW004 74 71     91%   75 29.95 29.93      
Jun 21 06:53 NE 5 4 Fog/Mist SCT002 71 69     93%   72 29.94 29.93      
Jun 21 06:48 5 4 Fog/Mist SCT002 70 70     100%     29.94        
Jun 21 05:53 3 8 Clear CLR 69 67     93%     29.94 29.93      
Jun 21 04:53 Calm 10 Clear CLR 68 66     93%     29.94 29.93      
Jun 21 03:53 Calm 10 Clear CLR 68 66     93%     29.94 29.93      
Jun 21 02:53 Calm 10 Clear CLR 70 67     90%     29.94 29.93      
Jun 21 01:53 Calm 10 Clear CLR 70 67     90%     29.97 29.96      
Jun 21 00:53 Calm 10 Clear CLR 72 68     87%   73 29.98 29.96      
Jun 20 23:53 Calm 10 Clear CLR 74 68     82%   75 29.98 29.96      
Jun 20 22:53 5 10 Clear CLR 75 68     79%   76 29.97 29.96      
Jun 20 20:53 E 3 10 Clear CLR 77 68     74%   78 29.96 29.95      
Jun 20 19:53 Calm 10 Clear CLR 81 69     67%   84 29.96 29.95      
Jun 20 18:53 8 10 Clear CLR 86 65     50%   88 29.95 29.94      
Jun 20 17:53 8 10 Clear CLR 88 63     43%   89 29.95 29.94      
Jun 20 16:53 8 10 Clear CLR 88 65     47%   90 29.96 29.95      
Jun 20 15:53 NE 11 10 Clear CLR 90 65     44%   92 29.97 29.96      
Jun 20 14:53 10 10 Mostly Clear FEW050 89 66     47%   92 29.99 29.98      
Jun 20 13:53 E 8 10 Clear CLR 89 66     47%   92 30.01 30      
Jun 20 12:53 10 10 Clear CLR 88 67     50%   91 30.02 30.01      
Jun 20 11:53 NE 10 10 Clear CLR 86 68     55%   89 30.03 30.02      
Jun 20 10:53 NE 10 10 Clear CLR 85 68     57%   88 30.04 30.03      
Jun 20 09:53 NE 13 10 Clear CLR 83 69     63%   87 30.05 30.04      
Jun 20 08:53 NE 9 10 Clear CLR 79 69     72%   80 30.06 30.04      
Jun 20 07:53 3 10 Clear CLR 76 69     79%   77 30.04 30.03      
Jun 20 06:53 Calm 10 Clear CLR 71 68     90%   72 30.03 30.02      
Jun 20 05:53 Calm 10 Clear CLR 67 65     93%     30 29.99      
Jun 20 04:53 Calm 10 Clear CLR 69 67     93%     30 29.99      
Jun 20 03:53 Calm 10 Clear CLR 70 67     90%     30 29.99      
Jun 20 02:53 Calm 10 Clear CLR 70 67     90%     30 29.99      
Jun 20 01:53 Calm 10 Clear CLR 69 67     93%     30.02 30.01      
Jun 20 00:53 Calm 10 Clear CLR 69 67     93%     30.03 30.02      
Jun 19 23:53 Calm 10 Clear CLR 71 68     90%   72 30.03 30.03      
Jun 19 22:53 Calm 10 Clear CLR 72 69     91%   73 30.03 30.02      
Jun 19 21:53 Calm 10 Clear CLR 73 70     90%   74 30.01 30.01      
Jun 19 20:53 Calm 10 Clear CLR 75 70     84%   76 29.98 29.97      
Jun 19 19:53 Calm 10 Clear CLR 81 70     69%   84 29.99 29.97      
Jun 19 18:53 Calm 10 Clear CLR 84 69     61%   88 29.98 29.96     0
Jun 19 16:53 5 10 Clear CLR 85 71     63%   90 29.95 29.94      
Jun 19 15:53 8 10 Clear CLR 84 69     61%   88 29.96 29.95   0  
Jun 19 14:53 N 5 10 Mostly Cloudy FEW014 BKN060 80 70     71%   83 29.98 29.97 0    
Jun 19 13:53 Calm 10 Cloudy SCT014 OVC050 76 70     82%   77 30.01 30      
Jun 19 13:38 N 5 10 Cloudy BKN014 OVC055 76 70     82%   77 30.02        
Jun 19 13:27 3 10 Cloudy SCT013 OVC055 76 70     82%   77 30.02        
Jun 19 12:53 NE 6 10 Cloudy OVC011 76 70     82%   77 30.02 30.01     0
Jun 19 12:17 7 10 Cloudy OVC010 76 70     82%   77 30.01        
Jun 19 11:53 6 10 Mostly Cloudy BKN008 75 70     84%   76 30 29.99      
Jun 19 11:20 NE 10 10 Mostly Cloudy BKN007 BKN025 73 69     87%   74 30        
Jun 19 10:38 NE 7 10 Mostly Cloudy BKN005 BKN110 72 69     91%   73 30   0    
Jun 19 09:53 5 4 Rain and Fog/Mist FEW005 BKN070 OVC085 72 70     93%   73 30.02 30 0 0  
Jun 19 09:41 N 3 3 Light Rain and Fog/Mist SCT005 BKN038 OVC070 72 70     93%   73 30.02   0    
Jun 19 09:32 Calm 1.75 Heavy Rain and Fog/Mist SCT005 BKN040 OVC048 72 70     93%   73 30.02   0    
Jun 19 08:53 5 10 Cloudy SCT007 BKN033 OVC110 74 70     87%   75 30 29.98      
Jun 19 08:29 7 10 Mostly Cloudy SCT007 BKN030 74 70     87%   75 30        
Jun 19 07:53 6 10 Partly Cloudy FEW044 SCT120 74 70     87%   75 29.97 29.96      
Jun 19 06:53 5 10 Clear CLR 73 69     87%   74 29.95 29.94      
Jun 19 03:53 7 10 Mostly Cloudy BKN031 72 69     91%   73 29.92 29.91      
Jun 19 01:53 Calm 10 Clear CLR 71 68     90%   72 29.92 29.91      
Jun 19 00:53 Calm 10 Clear CLR 73 69     87%   74 29.92 29.91      
Jun 18 21:53 NE 3 10 Clear CLR 75 69     82%   76 29.9 29.89      
Jun 18 20:53 5 10 Mostly Clear FEW070 78 69     74%   79 29.88 29.87      
Jun 18 19:53 Calm 10 Mostly Clear FEW038 84 77     80%   94 29.85 29.84      
Jun 18 18:53 3 10 Clear CLR 85 76     75%   94 29.83 29.82      
Jun 18 17:53 6 10 Clear CLR 85 75     72%   93 29.8 29.79      
Jun 18 15:53 5 10 Partly Cloudy FEW060 SCT100 87 72     61%   94 29.8 29.79      
Jun 18 14:53 7 10 Clear CLR 88 73     61%   96 29.83 29.81      
Jun 18 14:37 W 7 10 Clear CLR 88 74     63%   97 29.84        
Jun 18 14:11 NW 8 10 Partly Cloudy FEW027 SCT037 88 73     61%   96 29.85        
Jun 18 13:53 NW 9 10 Mostly Cloudy SCT025 BKN038 BKN050 86 74     67%   94 29.87 29.86      
Jun 18 10:53 SW 10 10 Mostly Cloudy FEW017 SCT029 BKN043 85 74     70%   92 29.87 29.86      
Jun 18 10:49 SW 10 10 Mostly Cloudy FEW017 SCT029 BKN043 84 75     74%   92 29.87        
Jun 18 09:53 7 10 Cloudy BKN017 OVC023 82 75     79%   89 29.87 29.86      
Jun 18 09:08 8 10 Clear   81 74     79%   86 29.88        
Jun 18 08:53 9 10 Clear   81 75     82%   87 29.88 29.87      
Jun 18 08:21 SW 7 10 Mostly Cloudy BKN010 80 75     85%   85 29.86        
Jun 18 07:53 SW 8 10 Mostly Cloudy BKN009 BKN013 79 75     88%   83 29.86 29.84      
Jun 18 07:28 SW 9 10 Mostly Cloudy SCT007 BKN014 BKN070 79 75     88%   83 29.86        
Jun 18 06:53 SW 6 10 Cloudy BKN007 OVC037 78 75     90%   80 29.86 29.85      
Notice The following observation data may not be complete
Jun 18 06:24   10 Cloudy BKN007 OVC035          %              
Jun 18 06:10 5 10 Cloudy BKN006 OVC036 78 75     90%   80 29.85        
Jun 18 05:53 5 10 Cloudy SCT007 BKN036 OVC045 77 75     94%   79 29.83 29.81      
Jun 18 05:22 S 6 10 Mostly Cloudy FEW006 SCT036 BKN043 77 75     94%   79 29.8        
Jun 18 03:53 S 7 10 Partly Cloudy SCT036 77 74     90%   79 29.79 29.78      
Jun 18 02:53 6 10 Mostly Clear FEW039 77 74     90%   79 29.79 29.78      
Jun 18 01:53 S 6 10 Clear CLR 78 74     87%   80 29.78 29.77      
Jun 18 00:53 S 8 10 Clear CLR 79 74     85%   83 29.75 29.74      
Jun 17 22:53 S 5 10 Clear CLR 79 75     88%   83 29.77 29.76      
Jun 17 21:53 Calm 10 Mostly Clear FEW045 80 76     87%   85 29.78 29.77      
Jun 17 20:53 Calm 10 Clear CLR 82 76     82%   89 29.77 29.75      
Jun 17 19:53 S 3 10 Clear CLR 84 75     74%   92 29.76 29.75      
Jun 17 17:53 S 6 10 Clear CLR 88 73     61%   96 29.75 29.74      
Jun 17 16:53 10 10 Clear CLR 89 73     59%   97 29.74 29.73      
Jun 17 15:53 S 8 10 Mostly Cloudy SCT029 BKN041 BKN050 89 75     63%   99 29.75 29.74      
Jun 17 14:53 9 10 Mostly Clear FEW029 88 74     63%   97 29.76 29.75      
Jun 17 12:53 SW 13 10 Mostly Clear FEW024 88 74     63%   97 29.8 29.78      
Jun 17 10:53 W 9 10 Clear CLR 84 74     72%   91 29.84 29.83      
Jun 17 10:17 7 10 Mostly Cloudy SCT012 BKN048 80 73     79%   84 29.85        
Jun 17 09:53 SW 6 10 Mostly Cloudy BKN011 BKN060 80 73     79%   84 29.85 29.84      
Jun 17 09:37 5 10 Mostly Cloudy BKN010 79 73     82%   82 29.86        
Jun 17 08:53 SW 5 10 Cloudy OVC009 77 72     84%   78 29.86 29.85      
Jun 17 08:28 S 5 10 Mostly Cloudy BKN009 77 71     82%   78 29.85        
Jun 17 07:53 S 7 10 Clear CLR 75 69     82%   76 29.84 29.83      
Jun 17 06:53 5 10 Clear CLR 72 66     82%   73 29.83 29.82      
Jun 17 05:53 S 7 10 Clear CLR 70 65     84%     29.82 29.8      
Jun 17 04:53 10 10 Mostly Cloudy SCT045 BKN055 71 64     79%   72 29.82 29.81      
Jun 17 02:53 3 10 Clear CLR 70 65     84%     29.8 29.79      
Jun 17 01:53 7 10 Clear CLR 71 65     81%   72 29.81 29.8      
Jun 17 00:53 8 10 Clear CLR 72 66     82%   73 29.81 29.8      
Jun 16 22:53 9 10 Clear CLR 72 69     91%   73 29.83 29.82      
Jun 16 21:53 6 10 Clear CLR 74 69     85%   75 29.83 29.82      
Jun 16 20:53 7 10 Mostly Clear FEW039 FEW055 76 70     82%   77 29.82 29.81      
Jun 16 18:53 SW 3 10 Clear CLR 88 76     68%   99 29.78 29.77      
Jun 16 18:23 5 10 Mostly Clear FEW040 90 74     59%   99 29.77        
Jun 16 18:08 W 7 10 Clear CLR 89 74     61%   98 29.76        
Jun 16 16:53 8 10 Mostly Clear FEW040 91 73     56%   100 29.79 29.78      
Jun 16 15:53 8 10 Mostly Clear FEW039 92 75     58%   103 29.82 29.81      
Jun 16 14:53 7 10 Partly Cloudy SCT035 91 75     60%   102 29.83 29.81      
Jun 16 13:53 SW 8 10 Mostly Clear FEW028 FEW037 90 75     62%   101 29.86 29.85      
Jun 16 12:53 9 10 Mostly Cloudy FEW024 SCT036 BKN043 88 76     68%   99 29.89 29.88      
Jun 16 11:53 SW 6 10 Mostly Clear FEW018 86 76     72%   96 29.89 29.88      
Jun 16 10:53 5 10 Mostly Clear FEW018 85 76     75%   94 29.89 29.88      
Jun 16 09:53 SW 8 10 Clear CLR 87 76     70%   98 29.88 29.87      
Jun 16 08:53 6 10 Clear CLR 83 74     74%   89 29.88 29.87      
Jun 16 07:53 6 10 Clear CLR 81 74     79%   86 29.91 29.89      
Jun 16 06:53 Calm 7 Clear CLR 76 73     91%   77 29.9 29.89      
Jun 16 05:53 Calm 7 Clear CLR 75 72     90%   76 29.9 29.88      
Jun 16 04:53 W 3 8 Clear CLR 75 73     94%   77 29.9 29.89      
Jun 16 03:53 W 3 8 Clear CLR 75 73     94%   77 29.91 29.9      
Jun 16 02:53 Calm 8 Clear CLR 74 72     94%   75 29.9 29.89      
Jun 16 01:53 SW 3 10 Clear CLR 76 73     91%   77 29.9 29.89      
Jun 16 00:53 S 3 10 Clear CLR 75 71     88%   76 29.91 29.9     0
Jun 15 23:53 Calm 10 Partly Cloudy FEW043 SCT050 74 71     91%   75 29.93 29.92      
Jun 15 22:53 Calm 10 Clear CLR 73 71     94%   74 29.92 29.91      
Jun 15 21:53 Calm 10 Clear CLR 75 70     84%   76 29.91 29.9   0  
Jun 15 21:20 Calm 10 Clear CLR 76 70     82%   77 29.9        
Jun 15 21:03 NE 3 10 Mostly Clear FEW041 76 69     79%   77 29.9        
Jun 15 20:53 3 10 Thunderstorms SCT041 77 69     77%   78 29.91 29.9 0    
Jun 15 20:35 7 10 Thunderstorms SCT027 OVC043 77 70     79%   78 29.91   0    
Jun 15 19:53 6 10 Thunderstorms BKN021 OVC030 84 77     80%   94 29.89 29.88      
Jun 15 19:49 3 10 Thunderstorms SCT021 OVC029 84 75     74%   92 29.89        
Jun 15 19:33 Calm 10 Thunderstorms OVC031 87 78     75%   100 29.89        
Notice The following observation data may not be complete
Jun 15 19:19   10 Thunderstorms BKN029 BKN035 OVC065          %              
Jun 15 18:53 Calm 10 Mostly Cloudy SCT033 BKN043 BKN060 87 78     75%   100 29.89 29.88      
Jun 15 18:12 NW 3 10 Partly Cloudy FEW030 SCT034 SCT046 87 77     72%   99 29.89        
Jun 15 16:53 7 10 Clear CLR 89 75     63%   99 29.89 29.88      
Jun 15 14:53 6 10 Partly Cloudy FEW034 SCT060 86 75     70%   95 29.92 29.91      
Jun 15 14:26 3 10 Thunderstorms FEW025 BKN031 OVC065 82 74     77%   88 29.94        
Jun 15 14:13 7 10 Cloudy BKN027 OVC060 83 75     77%   90 29.95        
Jun 15 14:03 6 10 Mostly Cloudy SCT027 BKN033 BKN046 87 77     72%   99 29.95        
Jun 15 11:53 5 10 Mostly Cloudy FEW023 BKN080 BKN095 86 75     70%   95 30 29.99      
Jun 15 10:53 9 10 Mostly Cloudy SCT021 BKN090 85 75     72%   93 30.01 29.99      
Jun 15 09:53 9 10 Partly Cloudy SCT075 83 74     74%   89 30.01 30      
Jun 15 08:53   10 Clear CLR 82 74     77%   88 30.01 30      
Jun 15 07:53 5 10 Partly Cloudy SCT080 77 74     90%   79 30 29.99      
Jun 15 06:53 SW 6 10 Mostly Clear FEW005 76 73     91%   77 29.99 29.98      
Jun 15 05:53 7 10 Clear CLR 76 73     91%   77 29.96 29.95      
Jun 15 04:53 SW 10 10 Clear CLR 77 73     88%   79 29.94 29.93      
Jun 15 03:53 SW 8 10 Clear CLR 76 73     91%   77 29.95 29.93      
Jun 15 02:53 SW 8 10 Clear CLR 77 72     84%   78 29.95 29.94      
Jun 15 00:53 7 10 Clear CLR 77 72     84%   78 29.98 29.96      
Jun 14 23:53 S 8 10 Clear CLR 78 71     79%   79 29.98 29.96      
Jun 14 22:53 S 5 10 Clear CLR 79 72     79%   82 29.97 29.96      
Jun 14 20:53 S 3 10 Clear CLR 83 75     77%   90 29.95 29.94      
Jun 14 19:53 S 5 10 Clear CLR 85 74     70%   92 29.95 29.93      
Jun 14 18:53 S 6 10 Clear CLR 88 73     61%   96 29.94 29.93      
Jun 14 17:53 S 8 10 Clear CLR 90 71     54%   96 29.93 29.92      
Jun 14 15:53 SW 10 10 Mostly Clear FEW036 89 72     57%   96 29.95 29.94      
Jun 14 14:53 11 10 Partly Cloudy SCT033 89 72     57%   96 29.98 29.97      
Jun 14 13:53 8 10 Clear CLR 87 72     61%   94 30.01 29.99      
Jun 14 12:53 W 7 10 Mostly Cloudy SCT027 BKN032 85 73     68%   92 30.04 30.03      
Jun 14 11:53 W 7 10 Mostly Cloudy FEW019 SCT024 BKN031 83 73     72%   89 30.05 30.04      
Jun 14 11:44 W 10 10 Cloudy BKN021 OVC031 84 73     70%   90 30.06        
Jun 14 10:53 W 6 10 Cloudy BKN013 OVC019 80 73     79%   84 30.06 30.04      
Jun 14 10:50 5 10 Cloudy BKN013 OVC019 81 73     79%   85 30.05        
Jun 14 09:53 SW 9 10 Cloudy BKN013 OVC018 78 72     82%   79 30.05 30.04      
Jun 14 09:20 SW 11 10 Mostly Cloudy BKN013 80 73     79%   84 30.05        
Jun 14 09:08 SW 9 10 Partly Cloudy SCT011 80 73     79%   84 30.04        
Jun 14 08:53 SW 10 10 Mostly Cloudy BKN010 BKN120 79 73     82%   82 30.04 30.03      
Jun 14 07:53 5 10 Mostly Cloudy BKN009 BKN100 76 71     85%   77 30.04 30.03      
Jun 14 07:35 S 5 10 Partly Cloudy FEW009 SCT100 76 71     85%   77 30.03        
Jun 14 06:53 S 3 10 Clear CLR 74 70     87%   75 30.02 30.01      
Jun 14 05:53 S 3 10 Clear CLR 73 70     90%   74 29.98 29.97      
Jun 14 04:53 5 10 Clear CLR 74 71     91%   75 29.97 29.96      
Jun 14 03:53 S 6 10 Clear CLR 74 71     91%   75 29.96 29.95      
Jun 14 02:53 7 10 Clear CLR 75 71     88%   76 29.96 29.95      
Jun 14 01:53 S 6 10 Clear CLR 75 71     88%   76 29.97 29.96      
Jun 14 00:53 5 10 Clear CLR 76 71     85%   77 29.97 29.96      
Jun 13 23:53 Calm 10 Clear CLR 77 72     84%   78 29.97 29.96      
Jun 13 22:53 S 3 10 Clear CLR 78 74     87%   80 29.98 29.96      
Jun 13 21:53 6 10 Clear CLR 79 75     88%   83 29.98 29.96      
Jun 13 20:53 3 10 Clear CLR 79 74     85%   83 29.97 29.96      
Jun 13 18:53 S 8 10 Clear CLR 85 72     65%   91 29.95 29.94     0
Jun 13 17:53 S 8 10 Clear CLR 86 72     63%   92 29.96 29.95      
Jun 13 16:53 9 10 Clear CLR 86 73     65%   93 29.96 29.95      
Jun 13 15:53 7 10 Mostly Cloudy SCT029 SCT070 BKN090 85 77     77%   95 29.98 29.97 0 0  
Jun 13 15:33 5 10 Light Rain SCT036 BKN060 OVC100 81 75     82%   87 29.99   0    
Jun 13 15:26 6 2.5 Light Rain FEW028 BKN040 OVC110 80 74     82%   85 29.99   0    
Jun 13 15:00 10 10 Mostly Cloudy SCT042 BKN050 85 71     63%   90 29.98        
Jun 13 14:53 9 10 Mostly Cloudy SCT040 BKN050 86 71     61%   92 29.99 29.97      
Jun 13 14:44 S 9 10 Mostly Cloudy SCT040 BKN050 88 70     55%   93 29.99        
Jun 13 13:53 7 10 Clear CLR 88 71     57%   94 30 29.99      
Jun 13 12:53 6 10 Mostly Clear FEW027 FEW038 87 71     59%   93 30.03 30.02      
Jun 13 11:53 S 8 10 Partly Cloudy SCT021 85 73     68%   92 30.05 30.03      
Jun 13 11:46 9 10 Mostly Cloudy BKN021 BKN028 84 73     70%   90 30.05        
Jun 13 11:34 S 10 10 Partly Cloudy FEW021 SCT030 85 73     68%   92 30.05        
Jun 13 10:53 7 10 Mostly Cloudy BKN019 BKN028 83 72     70%   88 30.05 30.04      
Jun 13 10:14 Calm 10 Mostly Cloudy BKN015 81 72     74%   85 30.06        
Jun 13 09:53 6 10 Mostly Cloudy SCT009 BKN012 79 72     79%   82 30.06 30.05      
Jun 13 09:41 S 6 10 Mostly Cloudy BKN009 80 72     76%   84 30.07        
Jun 13 09:20 S 6 10 Cloudy OVC006 77 72     84%   78 30.07        
Jun 13 08:53 8 10 Cloudy OVC003 75 72     90%   76 30.08        
Jun 13 07:00 5 1.25 Fog/Mist OVC002 71 70     96%   72 30.04        
Jun 13 06:38 S 6 0.5 Fog VV002 71 70     96%   72 30.04        
Jun 13 06:26 5 1.75 Fog/Mist OVC002 71 70     96%   72 30.04        
Jun 13 05:53 6 10 Cloudy OVC003 71 69     93%   72 30.03 30.02      
Jun 13 05:04 3 10 Mostly Cloudy BKN004 70 68     93%     30.01        
Jun 13 04:53 3 10 Partly Cloudy SCT004 70 68     93%     30.01 30      
Jun 13 03:53 3 10 Clear CLR 71 68     90%   72 30 29.98      
Jun 13 02:53 5 10 Clear CLR 71 68     90%   72 29.99 29.98      
Jun 13 01:53 SW 3 10 Clear CLR 71 68     90%   72 29.98 29.97      
Jun 12 23:53 Calm 10 Clear CLR 73 69     87%   74 30.03 30.02      
Jun 12 22:53 5 10 Clear CLR 74 70     87%   75 30.02 30.01      
Jun 12 17:21 S 9 10 Thunderstorms FEW035 SCT045 86 73     65%   93 29.97        
Jun 12 17:07 E 8 10 Mostly Cloudy FEW030 SCT039 BKN048 88 73     61%   96 29.97        
Jun 12 16:53 3 10 Thunderstorms FEW039 89 74     61%   98 29.97 29.96      
Jun 12 14:53 5 10 Partly Cloudy FEW033 FEW060 SCT095 90 73     58%   98 30 29.99      
Jun 12 13:53 9 10 Clear CLR 89 71     55%   95 30.02 30      
Jun 12 12:53 9 10 Mostly Clear FEW049 88 73     61%   96 30.04 30.03      
Jun 12 11:53 S 8 10 Mostly Cloudy FEW026 SCT038 BKN045 87 73     63%   95 30.07 30.05      
Jun 12 11:14 S 10 10 Partly Cloudy SCT024 SCT029 85 72     65%   91 30.07        
Jun 12 11:01 10 10 Mostly Cloudy BKN025 85 73     68%   92 30.06        
Jun 12 10:53 7 10 Partly Cloudy SCT025 85 72     65%   91 30.06 30.05      
Jun 12 10:45 10 10 Partly Cloudy FEW023 SCT028 SCT046 85 72     65%   91 30.06        
Notice The following observation data may not be complete
Jun 12 10:19   10 Cloudy BKN023 OVC045          %              
Jun 12 09:53 S 9 10 Mostly Cloudy FEW020 BKN041 84 73     70%   90 30.07 30.06      
Jun 12 09:19 S 10 10 Partly Cloudy SCT018 SCT038 81 72     74%   85 30.07        
Jun 12 08:53 10 10 Mostly Cloudy BKN016 BKN021 80 72     76%   84 30.07 30.06      
Jun 12 08:50 10 10 Mostly Cloudy BKN016 BKN021 81 72     74%   85 30.07        
Jun 12 08:43 10 10 Partly Cloudy SCT016 80 72     76%   84 30.07        
Jun 12 07:53 6 10 Cloudy OVC011 77 72     84%   78 30.06 30.05      
Jun 12 07:46 S 6 10 Cloudy OVC011 77 73     88%   79 30.06        
Jun 12 06:53 7 10 Cloudy BKN009 BKN015 OVC020 76 73     91%   77 30.04 30.03      
Jun 12 06:50 S 7 10 Cloudy BKN009 BKN013 OVC020 75 73     94%   77 30.04        
Jun 12 06:32 S 6 10 Cloudy SCT009 OVC015 76 73     91%   77 30.04        
Jun 12 06:24 S 6 10 Cloudy FEW007 BKN013 OVC017 76 73     91%   77 30.03        
Jun 12 06:22 S 8 10 Cloudy SCT011 OVC017 76 73     91%   77 30.03        
Jun 12 05:53 7 10 Cloudy OVC009 76 73     91%   77 30.03 30.02      
Jun 12 05:48 7 10 Cloudy OVC009 75 73     94%   77 30.03        
Jun 12 05:24 6 10 Cloudy OVC010 75 73     94%   77 30.03        
Jun 12 04:53 S 5 10 Cloudy FEW004 OVC008 75 72     90%   76 30.02 30.01      
Jun 12 03:53 3 10 Cloudy OVC008 74 71     91%   75 30.01 30      
Jun 12 03:11 3 10 Cloudy OVC009 74 71     91%   75 30        
Jun 12 02:53 Calm 10 Mostly Cloudy BKN010 BKN014 74 71     91%   75 30 29.99      
Jun 12 02:45 5 10 Mostly Cloudy BKN012 74 71     91%   75 30.01        
Jun 12 01:53 S 6 10 Clear CLR 75 71     88%   76 30.02 30      
Jun 12 00:53 S 6 10 Clear CLR 75 70     84%   76 30.03 30.01      
Jun 11 23:53 6 10 Clear CLR 75 70     84%   76 30.02 30.01      
Jun 11 22:53 6 10 Clear CLR 76 70     82%   77 30.02 30.01      
Jun 11 21:53 S 3 10 Clear CLR 78 70     76%   79 30 29.99      
Jun 11 20:53 11 10 Mostly Cloudy FEW040 BKN085 BKN100 79 73     82%   82 30.01 30      
Jun 11 19:53 3 10 Clear CLR 84 72     67%   90 29.99 29.97      
Jun 11 18:53 9 10 Clear CLR 87 71     59%   93 29.98 29.97      
Jun 11 17:53 8 10 Clear CLR 87 70     57%   92 29.97 29.96      
Jun 11 16:53 7 10 Mostly Clear FEW037 86 70     59%   91 29.99 29.98      
Jun 11 15:53 9 10 Mostly Cloudy SCT039 BKN048 87 70     57%   92 30 29.99      
Jun 11 14:53 5 10 Mostly Clear FEW039 88 69     54%   92 30.02 30.01      
Jun 11 13:53 8 10 Mostly Clear FEW038 87 67     51%   90 30.03 30.02      
Jun 11 12:53 S 9 10 Mostly Cloudy BKN046 86 67     53%   89 30.04 30.03      
Jun 11 11:53 8 10 Partly Cloudy SCT045 85 66     53%   87 30.05 30.04      
Jun 11 10:53 S 6 10 Mostly Clear FEW031 84 67     57%   87 30.05 30.04      
Jun 11 09:53 S 7 10 Clear CLR 81 67     62%   83 30.05 30.04      
Jun 11 08:53 6 10 Clear CLR 78 69     74%   79 30.06 30.04      
Jun 11 07:53 5 10 Clear CLR 73 66     79%   74 30.04 30.03      
Jun 11 05:53 S 5 10 Clear CLR 67 63     87%     30.02        
Jun 11 04:53 S 3 10 Clear CLR 68 63     84%     30        
Jun 11 03:53 Calm 10 Clear CLR 68 63     84%     29.99        
Jun 11 02:53 3 10 Clear CLR 69 63     81%     29.99        
Jun 11 01:53 5 10 Clear CLR 70 64     81%     29.99        
Jun 11 00:53 Calm 10 Clear   70 65     84%     30        
Jun 10 23:53 Calm 10 Clear CLR 72 65     79%   73 30        
Jun 10 22:53 Calm 10 Clear CLR 74 66     76%   75 30        
Jun 10 21:53 Calm 10 Clear CLR 75 66     74%   76 29.98        
Jun 10 20:53 5 10 Clear CLR 77 66     69%   78 29.95        
Jun 10 19:53 Calm 10 Clear CLR 82 64     55%   84 29.95        
Notice The following observation data may not be complete
Jun 10 17:53     Clear            %     29.95        
Notice The following observation data may not be complete
Jun 10 16:53     Clear            %     29.95        
Notice The following observation data may not be complete
Jun 10 15:53     Clear            %     29.96        
Notice The following observation data may not be complete
Jun 10 14:53     Clear            %     29.98        
Notice The following observation data may not be complete
Jun 10 13:53     Clear            %     29.99        
Notice The following observation data may not be complete
Jun 10 12:53     Clear            %     30        
Notice The following observation data may not be complete
Jun 10 11:53     Clear            %     30.01        
Notice The following observation data may not be complete
Jun 10 10:53     Clear            %     30.01        
Notice The following observation data may not be complete
Jun 10 09:53     Clear            %     30.01        
Notice The following observation data may not be complete
Jun 10 08:53     Clear            %     30.01        
Notice The following observation data may not be complete
Jun 10 07:53     Clear            %     29.99        
Notice The following observation data may not be complete
Jun 10 06:53     Clear            %     29.98        
Jun 10 04:53     Clear   64 59     84%     29.95 29.94      
Jun 10 03:53 Calm 10 Clear CLR 63 59     87%     29.94 29.93      
Jun 10 02:53 Calm 10 Clear CLR 63 60     90%     29.95 29.94      
Jun 10 01:53 Calm 10 Clear CLR 64 60     87%     29.95 29.94      
Jun 10 00:53 Calm 10 Clear CLR 67 60     79%     29.95 29.94      
Jun 09 23:53 Calm 10 Clear CLR 67 60     79%     29.96 29.95      
Jun 09 22:53 Calm 10 Clear CLR 67 61     81%     29.95 29.94      
Jun 09 21:53 Calm 10 Clear CLR 69 62     78%     29.93 29.93      
Jun 09 20:53 Calm 10 Clear CLR 70 62     76%     29.92 29.91      
Jun 09 19:53 Calm 10 Clear CLR 74 61     64%   74 29.91 29.91      
Jun 09 18:53 3 10 Clear CLR 80 58     47%   80 29.91 29.9      
Jun 09 17:53 E 3 10 Partly Cloudy SCT055 82 56     41%   82 29.91 29.9      
Jun 09 16:53 Calm 10 Mostly Clear FEW055 83 56     40%   82 29.92 29.92      
Jun 09 15:53 Calm 10 Clear CLR 83 56     40%   82 29.94 29.93      
Jun 09 13:53 Calm 10 Clear CLR 81 54     39%   81 29.97 29.96      
Jun 09 12:53 Calm 10 Clear CLR 80 53     39%   80 29.98 29.97      
Jun 09 11:53 Calm 10 Partly Cloudy SCT050 78 52     40%   77 29.99 29.98      
Jun 09 09:53 Calm 10 Clear CLR 76 56     50%   76 29.99 29.98      
Jun 09 08:53 Calm 10 Clear CLR 73 57     57%   73 29.99 29.98      
Jun 09 07:53 Calm 10 Clear CLR 69 62     78%     29.98 29.97      
Jun 09 06:53 Calm 10 Clear CLR 60 57     90%     29.97 29.96      
Jun 09 04:53 Calm 10 Clear CLR 59 56     90%     29.93 29.93      
Jun 09 03:53 Calm 10 Clear CLR 59 56     90%     29.93 29.92      
Jun 09 02:53 Calm 10 Clear   58 56     93%     29.94 29.93      
Jun 09 01:53 Calm 10 Clear CLR 59 57     93%     29.94 29.93      
Jun 09 00:53 Calm 10 Clear CLR 60 57     90%     29.94 29.93      
Jun 08 23:53 Calm 10 Clear CLR 63 58     84%     29.95 29.94      
Jun 08 22:53 Calm 10 Clear CLR 65 59     81%     29.95 29.94      
Jun 08 21:53 Calm 10 Clear CLR 66 60     81%     29.93 29.92      
Jun 08 19:53 N 3 10 Clear CLR 76 58     54%   76 29.91 29.91      
Jun 08 18:53 5 10 Clear CLR 79 56     45%   79 29.91 29.9      
Jun 08 16:53 6 10 Clear CLR 81 53     38%   80 29.92 29.91      
Jun 08 15:53 6 10 Clear CLR 81 54     39%   81 29.94 29.93      
Jun 08 14:53 3 10 Mostly Clear FEW060 82 53     37%   81 29.96 29.95      
Jun 08 13:53 7 10 Mostly Clear FEW060 81 53     38%   80 29.98 29.97      
Jun 08 12:53 N 7 10 Mostly Clear FEW060 80 53     39%   80 30 29.99      
Jun 08 11:53 7 10 Clear CLR 80 50     35%   79 30.01 30      
Jun 08 10:53 NE 13 10 Clear CLR 79 54     42%   79 30.02 30.01      
Jun 08 09:53 5 10 Clear CLR 75 59     57%   75 30.01 30      
Jun 08 08:53 NE 3 10 Clear CLR 72 58     61%   72 30.01 30.01      
Jun 08 07:53 Calm 10 Clear CLR 69 58     68%     30 29.99      
Jun 08 06:53 3 10 Clear CLR 62 56     80%     29.99 29.98      
Jun 08 05:53 3 10 Clear CLR 59 56     90%     29.96 29.95      
Jun 08 03:53 3 10 Clear CLR 62 56     80%     29.94 29.93      
Jun 08 02:53 3 10 Clear CLR 63 56     78%     29.95 29.94      
Jun 08 01:53 Calm 10 Clear CLR 64 57     78%     29.94 29.93      
Jun 08 00:53 Calm 10 Clear CLR 65 58     78%     29.95 29.94      
Jun 07 23:53 Calm 10 Clear CLR 66 58     75%     29.96 29.96      
Jun 07 22:53 NW 3 10 Clear CLR 67 59     76%     29.96 29.95      
Jun 07 21:53 Calm 10 Clear CLR 67 59     76%     29.95 29.94      
Jun 07 20:53 3 10 Clear CLR 68 60     76%     29.94 29.93      
Jun 07 19:53 Calm 10 Clear CLR 75 58     55%   75 29.94 29.93      
Jun 07 18:53 N 5 10 Clear CLR 79 56     45%   79 29.93 29.92      
Jun 07 17:53 7 10 Clear CLR 80 57     45%   80 29.93 29.92      
Jun 07 16:53 8 10 Clear CLR 80 57     45%   80 29.93 29.92      
Jun 07 15:53 NE 9 10 Clear CLR 83 56     40%   82 29.93 29.92      
Jun 07 14:53 NE 14 10 Clear CLR 83 53     36%   82 29.93 29.92      
Jun 07 13:53 NE 14 10 Clear CLR 82 51     34%   81 29.94 29.93      
Jun 07 12:53 9 10 Clear CLR 80 52     38%   80 29.95 29.94      
Jun 07 11:53 NE 10 10 Clear CLR 80 53     39%   80 29.95 29.94      
Jun 07 10:53 NE 13 10 Clear   80 56     44%   80 29.95 29.94      
Jun 07 09:53 8 10 Clear CLR 77 58     52%   77 29.95 29.94      
Jun 07 08:53 NE 9 10 Clear CLR 74 60     62%   74 29.95 29.94      
Jun 07 07:53 NE 8 10 Clear CLR 71 60     68%   71 29.93 29.92      
Jun 06 14:32 NE 14 10 Partly Cloudy FEW024 SCT029 SCT044 85 71     63%   90 29.76        
Jun 06 14:04 11 10 Mostly Cloudy BKN024 BKN037 82 72     72%   87 29.78        
Jun 06 13:53 NE 14 10 Partly Cloudy SCT023 SCT037 82 71     69%   86 29.78 29.76      
Jun 06 13:32 NE 13 10 Mostly Cloudy FEW022 SCT028 BKN047 83 72     70%   88 29.78        
Jun 06 13:23 NE 9 10 Mostly Cloudy SCT022 BKN028 BKN036 82 72     72%   87 29.78        
Jun 06 12:53 NE 17 10 Partly Cloudy SCT024 83 71     67%   88 29.79 29.78     0
Jun 06 12:26 18 10 Partly Cloudy FEW019 SCT025 82 72     72%   87 29.79        
Jun 06 11:53 NE 10 10 Mostly Cloudy BKN017 BKN032 80 71     74%   84 29.8 29.78      
Jun 06 11:45 NE 14 10 Mostly Cloudy SCT016 SCT027 BKN034 81 72     74%   85 29.79        
Jun 06 11:35 9 10 Mostly Cloudy BKN016 BKN027 BKN034 78 72     82%   79 29.8        
Jun 06 10:53 NE 9   Clear   78 74     87%   80 29.8 29.78 0    
Jun 06 10:25 6 10 Clear   77 72     84%   78 29.8        
Jun 06 09:53 7 10 Cloudy BKN012 OVC019 77 72     84%   78 29.81 29.8      
Jun 06 09:41 6 10 Cloudy BKN010 OVC016 76 71     85%   77 29.81        
Jun 06 08:53 6 10 Cloudy OVC008 74 71     91%   75 29.8 29.8      
Jun 06 08:31 6 10 Cloudy OVC007 74 71     91%   75 29.8        
Jun 06 07:53 5 8 Cloudy OVC004 73 71     94%   74 29.79 29.78      
Jun 06 06:53 7 7 Cloudy OVC004 73 71     94%   74 29.78 29.77     0
Jun 06 05:53 3 9 Cloudy OVC004 73 71     94%   74 29.78 29.76      
Jun 06 05:30 3 9 Cloudy OVC004 73 71     94%   74 29.77        
Jun 06 04:53 3 9 Cloudy OVC005 72 70     93%   73 29.76 29.75      
Jun 06 03:53 3 10 Cloudy BKN002 BKN045 OVC075 72 70     93%   73 29.76 29.75 0 0  
Jun 06 03:39 3 10 Mostly Cloudy SCT002 BKN075 72 70     93%   73 29.75   0    
Jun 06 02:53 5 7 Light Rain FEW080 BKN110 72 70     93%   73 29.76 29.75 0    
Jun 06 01:53 E 7 4 Heavy Rain and Fog/Mist FEW014 BKN046 OVC090 72 70     93%   73 29.76 29.75 0    
Jun 06 00:53 5 10 Partly Cloudy FEW090 SCT100 72 70     93%   73 29.77 29.76      
Jun 05 23:53 Calm 10 Clear CLR 72 70     93%   73 29.77 29.76      
Jun 05 22:53 Calm 10 Mostly Clear FEW044 72 70     93%   73 29.77 29.76      
Jun 05 21:53 Calm 10 Clear   71 69     93%   72 29.76 29.75      
Jun 05 20:53 Calm 10 Clear CLR 72 70     93%   73 29.75 29.74      
Jun 05 20:14 3 10 Mostly Clear FEW006 73 70     90%   74 29.74        
Jun 05 19:53 3 10 Clear CLR 73 70     90%   74 29.73 29.72      
Jun 05 18:53 5 10 Mostly Cloudy SCT010 SCT013 BKN034 75 71     88%   76 29.73 29.72 0   0
Jun 05 17:53 6 10 Mostly Cloudy BKN034 81 70     69%   84 29.72 29.7      
Jun 05 16:53 S 7 10 Clear   83 67     59%   86 29.71 29.7      
Jun 05 15:53 8 10 Mostly Clear FEW031 82 67     60%   85 29.72 29.71      
Jun 05 14:53 6 10 Mostly Clear FEW029 83 69     63%   87 29.74 29.73      
Jun 05 13:53 S 7 10 Mostly Cloudy SCT025 BKN032 BKN043 80 68     67%   83 29.76 29.75      
Jun 05 13:44 8 10 Mostly Cloudy BKN025 BKN031 80 68     67%   83 29.76        
Jun 05 12:53 3 10 Mostly Clear FEW021 FEW032 79 68     69%   80 29.77 29.76      
Jun 05 12:09 3 10 Cloudy FEW023 OVC031 78 68     71%   79 29.79        
Jun 05 11:53 5 10 Cloudy BKN025 OVC031 78 68     71%   79 29.79 29.78      
Jun 05 10:53 6 10 Mostly Cloudy BKN018 78 68     71%   79 29.79 29.78      
Jun 05 10:42 5 10 Mostly Cloudy BKN018 78 68     71%   79 29.79        
Jun 05 10:35 S 3 10 Partly Cloudy SCT016 76 67     74%   77 29.79        
Jun 05 10:20 3 10 Partly Cloudy SCT014 76 67     74%   77 29.79        
Jun 05 09:53 S 6 10 Mostly Cloudy BKN014 75 67     76%   76 29.8 29.79      
Jun 05 08:53 5 10 Cloudy OVC013 73 67     81%   74 29.81 29.8      
Jun 05 07:53 Calm 10 Cloudy OVC010 71 67     87%   72 29.81 29.8      
Jun 05 07:46 Calm 10 Cloudy OVC010 71 67     87%   72 29.81        
Jun 05 06:53 W 3 10 Mostly Cloudy BKN008 70 67     90%     29.79 29.78      
Jun 05 05:53 6 10 Cloudy OVC007 70 67     90%     29.8 29.79      
Jun 05 04:53 7 10 Cloudy OVC007 70 67     90%     29.8 29.78      
Jun 05 04:44 7 9 Cloudy OVC005 70 68     93%     29.8        
Jun 05 03:53 6 10 Cloudy OVC008 71 68     90%   72 29.79 29.78      
Jun 05 02:53 S 6 10 Cloudy BKN009 OVC015 72 69     91%   73 29.79 29.78      
Jun 05 01:53 S 6 10 Cloudy OVC009 73 70     90%   74 29.79 29.78      
Jun 05 00:53 S 3 10 Cloudy BKN008 OVC013 73 71     94%   74 29.79 29.78      
Jun 05 00:04 S 5 10 Clear   73 71     94%   74 29.79        
Jun 04 23:53 S 5 10 Clear   73 71     94%   74 29.79 29.78      
Jun 04 23:06 6 10 Mostly Cloudy BKN008 73 71     94%   74 29.8        
Jun 04 22:53 5 10 Partly Cloudy SCT008 74 71     91%   75 29.81 29.79      
Jun 04 22:49 5 10 Mostly Cloudy BKN008 73 72     94%   75 29.8        
Jun 04 22:08 6 10 Mostly Cloudy FEW008 SCT012 BKN020 75 71     88%   76 29.8        
Jun 04 21:53 5 10 Mostly Cloudy SCT012 BKN020 75 72     90%   76 29.79 29.78      
Jun 04 20:53 5 10 Mostly Clear FEW110 76 72     88%   77 29.79 29.78      
Jun 04 19:53 7 10 Mostly Cloudy FEW023 BKN110 77 73     88%   79 29.79 29.78      
Jun 04 19:45 5 10 Partly Cloudy FEW007 SCT110 77 74     90%   79 29.79        
Jun 04 18:53 Calm 10 Mostly Clear FEW110 80 72     76%   84 29.79 29.78     0
Jun 04 16:53 SW 10 10 Clear CLR 80 69     69%   83 29.82 29.8      
Jun 04 15:53 10 10 Mostly Clear FEW120 81 72     74%   85 29.81 29.8 0 0  
Jun 04 14:53 13 10 Mostly Cloudy FEW026 FEW060 BKN095 83 71     67%   88 29.82 29.81      
Jun 04 13:53 SW 11 10 Cloudy SCT040 OVC050 82 71     69%   86 29.83 29.82      
Jun 04 12:53 10 10 Mostly Clear FEW035 83 72     70%   88 29.84 29.83     0
Jun 04 11:53 8 10 Partly Cloudy FEW036 FEW047 SCT060 77 73     88%   79 29.86 29.85 0    
Jun 04 11:32 S 6 3 Light Rain and Fog/Mist FEW022 BKN047 OVC060 75 72     90%   76 29.86   0    
Jun 04 11:21 13 1.75 Rain and Fog/Mist FEW018 BKN034 OVC055 75 72     90%   76 29.87   0    
Jun 04 11:14 11 2 Heavy Rain FEW018 BKN029 OVC047 78 73     85%   80 29.86   0    
Jun 04 10:53 S 7 10 Mostly Cloudy SCT018 BKN030 BKN065 80 72     76%   84 29.87 29.85      
Jun 04 10:41 11 10 Mostly Cloudy FEW016 SCT028 BKN070 79 72     79%   82 29.87        
Jun 04 10:16 S 9 10 Mostly Cloudy FEW010 BKN016 BKN024 79 73     82%   82 29.88        
Jun 04 10:08 S 7 10 Cloudy FEW008 BKN014 OVC024 79 73     82%   82 29.88        
Jun 04 09:53 S 8 10 Mostly Cloudy SCT013 BKN018 78 74     87%   80 29.89 29.88 0 0  
Jun 04 09:24 S 7 10 Cloudy FEW009 BKN013 OVC060 77 73     88%   79 29.89   0    
Jun 04 08:53 S 6 10 Cloudy BKN009 BKN012 OVC020 76 73     91%   77 29.89 29.88      
Jun 04 08:05 S 7 10 Cloudy BKN008 OVC020 75 73     94%   77 29.88        
Jun 04 07:53 S 5 10 Cloudy FEW006 OVC019 75 73     94%   77 29.88 29.87 0    
Jun 04 07:29 S 6 10 Cloudy FEW007 OVC017 75 73     94%   77 29.89   0    
Jun 04 07:19 5 8 Cloudy BKN007 OVC016 75 73     94%   77 29.89   0    
Jun 04 07:03 Calm 5 Fog/Mist BKN005 OVC011 75 73     94%   77 29.89   0    
Jun 04 06:53 5 4 Fog/Mist OVC004 75 73     94%   77 29.89 29.87     0
Jun 04 06:35 Calm 10 Cloudy BKN005 BKN011 OVC020 75 73     94%   77 29.88        
Jun 04 05:53 3 9 Cloudy SCT006 OVC012 74 73     97%   76 29.88 29.87      
Jun 04 05:16 E 3 10 Cloudy BKN006 OVC016 75 73     94%   77 29.89        
Jun 04 05:07 Calm 10 Cloudy BKN008 OVC016 75 73     94%   77 29.88        
Jun 04 04:53 S 3 10 Cloudy BKN006 BKN010 OVC016 75 73     94%   77 29.87 29.86 0    
Jun 04 04:36 5 10 Cloudy OVC006 74 73     97%   76 29.88   0    
Jun 04 04:16 S 5 10 Thunderstorms OVC006 75 72     90%   76 29.88   0    
Jun 04 04:14 S 6 10 Cloudy OVC004 75 73     94%   77 29.88   0    
Jun 04 04:05 3 6 Light Rain and Fog/Mist OVC004 74 73     97%   76 29.88   0    
Jun 04 03:57 Calm 2.5 Rain and Fog/Mist OVC004 74 73     97%   76 29.88   0    
Jun 04 03:53 Calm 3 Rain and Fog/Mist OVC005 74 72     94%   75 29.88 29.87 0 0  
Jun 04 03:37 E 3 10 Cloudy BKN005 OVC014 74 72     94%   75 29.88   0    
Jun 04 03:26 Calm 10 Cloudy BKN007 OVC014 74 72     94%   75 29.88   0    
Jun 04 03:17 Calm 8 Light Rain SCT007 BKN013 OVC030 74 72     94%   75 29.88   0    
Jun 04 03:07 3 10 Cloudy BKN006 BKN013 OVC031 74 72     94%   75 29.88   0    
Jun 04 02:53 S 3 3 Heavy Rain and Fog/Mist SCT006 BKN012 OVC030 74 73     97%   76 29.89 29.88 0    
Jun 04 02:44 S 3 4 Light Rain and Fog/Mist BKN008 OVC016 74 72     94%   75 29.89   0    
Jun 04 02:40 6 2 Light Rain and Fog/Mist FEW007 BKN010 OVC016 74 72     94%   75 29.89   0    
Jun 04 02:32 6 1.75 Heavy Rain and Fog/Mist FEW005 SCT009 OVC016 74 72     94%   75 29.89   0    
Jun 04 02:30 7 2 Rain and Fog/Mist FEW005 BKN009 OVC014 74 72     94%   75 29.89   0    
Jun 04 02:01 5 10 Mostly Cloudy FEW007 BKN014 75 72     90%   76 29.89        
Jun 04 01:53 6 10 Partly Cloudy FEW007 SCT014 75 72     90%   76 29.89 29.88      
Jun 04 01:18 5 10 Mostly Cloudy FEW008 BKN048 BKN060 75 72     90%   76 29.91        
Jun 04 01:03 6 10 Mostly Cloudy SCT007 BKN016 BKN029 75 72     90%   76 29.91        
Jun 04 00:53 5 10 Mostly Cloudy SCT007 BKN014 75 72     90%   76 29.92 29.91      
Jun 04 00:49 3 10 Mostly Cloudy SCT007 BKN014 75 72     89%   77 29.92        
Jun 04 00:42 S 5 10 Partly Cloudy FEW007 SCT012 75 72     90%   76 29.92        
Jun 03 23:53 5 10 Partly Cloudy FEW013 SCT021 76 72     88%   77 29.92 29.91      
Jun 03 23:45 5 10 Mostly Cloudy SCT013 BKN021 76 72     88%   77 29.92        
Jun 03 23:27 6 10 Mostly Cloudy BKN013 BKN021 76 72     88%   77 29.92        
Jun 03 22:53 5 10 Clear CLR 76 71     85%   77 29.92 29.91      
Jun 03 21:53 Calm 10 Partly Cloudy FEW026 SCT034 77 72     84%   78 29.91 29.9      
Jun 03 21:49 Calm 10 Mostly Cloudy FEW026 BKN034 77 72     83%   78 29.92        
Jun 03 21:27 Calm 10 Mostly Cloudy BKN025 BKN036 76 73     91%   77 29.92        
Jun 03 20:53 NE 3 10 Mostly Clear FEW120 77 72     84%   78 29.91 29.9      
Jun 03 19:53 N 5 10 Mostly Cloudy BKN036 79 72     79%   82 29.9 29.89      
Jun 03 18:53 E 3 10 Clear CLR 83 72     70%   88 29.88 29.87      
Jun 03 17:53 8 10 Mostly Clear FEW110 86 73     65%   93 29.89 29.88      
Jun 03 16:53 E 7 10 Mostly Clear FEW034 87 70     57%   92 29.89 29.88      
Jun 03 15:53 7 10 Mostly Clear FEW043 88 70     55%   93 29.91 29.89      
Jun 03 14:53 E 8 10 Mostly Cloudy SCT030 BKN038 BKN060 84 71     65%   89 29.93 29.91      
Jun 03 13:53 7 10 Mostly Clear FEW037 FEW055 85 69     59%   89 29.94 29.93      
Jun 03 12:53 E 8 10 Mostly Cloudy SCT025 BKN033 BKN043 84 71     65%   89 29.97 29.96      
Jun 03 11:53 5 10 Mostly Clear FEW027 82 70     67%   86 29.99 29.98      
Jun 03 11:20 E 6 10 Mostly Cloudy BKN017 BKN024 79 70     74%   82 30        
Jun 03 11:12 E 3 10 Partly Cloudy SCT017 81 70     69%   84 30        
Jun 03 10:53 6 10 Cloudy OVC016 78 70     76%   79 30.01 29.99      
Jun 03 10:48 5 10 Cloudy OVC016 79 72     79%   82 30.01        
Jun 03 10:29 3 10 Cloudy SCT008 OVC013 77 70     79%   78 30        
Jun 03 10:04 5 10 Cloudy OVC007 75 70     84%   76 30        
Jun 03 09:53 6 10 Cloudy OVC006 75 70     84%   76 30.01 29.99      
Jun 03 09:19 E 6 10 Cloudy OVC005 74 71     91%   75 30.01        
Jun 03 08:53 3 10 Cloudy OVC003 73 71     94%   74 30.01 30      
Jun 03 08:34 E 6 3 Fog/Mist OVC002 72 71     97%   73 30.01        
Jun 03 08:23 E 7 1.25 Fog/Mist OVC002 72 71     97%   73 30.01        
Jun 03 08:10 E 5 0.5 Fog VV002 72 71     97%   73 30        
Jun 03 07:53 E 6 0.25 Fog VV002 72 71     97%   73 30 29.99      
Jun 03 06:53 E 8 0.25 Fog VV002 71 70     96%   72 29.98 29.97      
Jun 03 05:53 3 0.25 Fog VV002 70 69     97%     29.97 29.96      
Jun 03 05:32 Calm 0.25 Fog VV002 70 69     97%     29.97        
Jun 03 05:21 Calm 0.75 Fog/Mist VV002 70 69     97%     29.97        
Jun 03 05:14 Calm 2 Fog/Mist OVC002 70 69     97%     29.97        
Jun 03 05:03 3 0.5 Fog VV002 69 68     96%     29.97        
Jun 03 04:53 3 1.5 Fog/Mist OVC003 70 68     93%     29.97 29.96      
Jun 03 04:42 Calm 5 Fog/Mist BKN004 69 67     93%     29.97        
Jun 03 03:53 Calm 7 Mostly Clear FEW003 69 67     93%     29.95 29.94      
Jun 03 03:28 Calm 9 Partly Cloudy SCT002 69 68     96%     29.96        
Jun 03 02:53 Calm 10 Clear CLR 70 68     93%     29.96 29.94      
Jun 03 01:53 Calm 10 Clear CLR 71 69     93%   72 29.96 29.95      
Jun 03 00:53 Calm 10 Clear CLR 71 69     93%   72 29.97 29.96      
Jun 02 23:53 Calm 10 Clear CLR 73 70     90%   74 29.98 29.97      
Jun 02 22:53 Calm 10 Clear CLR 73 70     90%   74 29.98 29.97      
Jun 02 21:53 Calm 10 Clear CLR 74 71     91%   75 29.97 29.96      
Jun 02 20:53 Calm 10 Clear CLR 75 71     88%   76 29.97 29.96      
Jun 02 19:53 Calm 10 Clear CLR 78 71     79%   79 29.95 29.94      
Jun 02 18:53 3 10 Clear CLR 80 71     74%   84 29.95 29.94      
Jun 02 17:53 E 8 10 Cloudy BKN032 BKN043 OVC055 81 71     72%   85 29.95 29.94      
Jun 02 17:51 8 10 Cloudy FEW029 BKN034 OVC055 82 72     70%   87 29.95        
Jun 02 17:44 7 10 Cloudy BKN028 BKN035 OVC055 81 71     72%   85 29.96        
Jun 02 17:35 3 10 Cloudy SCT027 BKN034 OVC055 81 72     74%   85 29.96        
Jun 02 17:16 3 10 Cloudy BKN025 OVC035 81 72     74%   85 29.96        
Jun 02 16:53 3 10 Partly Cloudy SCT034 82 69     65%   85 29.96 29.95      
Jun 02 15:53 6 10 Mostly Cloudy SCT040 BKN050 BKN060 83 70     65%   87 29.97 29.96      
Jun 02 15:38 7 10 Mostly Cloudy SCT028 BKN044 83 69     63%   87 29.97        
Jun 02 15:19   10 Mostly Cloudy BKN027 BKN037 83 68     61%   86 29.98        
Jun 02 14:53 E 5 10 Mostly Cloudy SCT030 BKN037 81 68     65%   84 29.98 29.97      
Jun 02 14:32 E 6 10 Cloudy SCT024 OVC036 82 69     65%   85 29.99        
Jun 02 14:13 E 6 10 Mostly Cloudy BKN024 BKN065 81 69     67%   84 30        
Jun 02 13:53 5 10 Cloudy SCT026 BKN035 OVC080 82 69     65%   85 30 29.99      
Jun 02 13:44 E 6 10 Cloudy BKN026 OVC035 82 69     65%   85 30.01        
Jun 02 12:53 3 10 Partly Cloudy FEW020 SCT032 81 69     67%   84 30.03 30.02      
Jun 02 12:39 E 5 10 Mostly Cloudy BKN031 81 69     67%   84 30.03        
Jun 02 11:53 6 10 Cloudy OVC026 78 69     74%   79 30.04 30.03      
Jun 02 10:53 E 5 10 Cloudy FEW012 FEW018 OVC025 76 69     79%   77 30.05 30.04      
Jun 02 10:10 3 10 Cloudy FEW010 BKN015 OVC022 74 69     85%   75 30.05        
Jun 02 09:53 S 3 10 Cloudy BKN011 BKN016 OVC024 74 69     85%   75 30.05 30.04      
Jun 02 09:07 Calm 10 Cloudy SCT006 BKN010 OVC021 73 69     87%   74 30.05        
Jun 02 08:53 3 10 Cloudy BKN006 OVC020 72 69     91%   73 30.05 30.04      
Jun 02 08:30 Calm 10 Cloudy SCT005 SCT012 OVC018 72 69     91%   73 30.05        
Jun 02 08:19 Calm 5 Fog/Mist FEW005 BKN012 OVC017 71 69     93%   72 30.04        
Jun 02 08:12 Calm 5 Fog/Mist BKN004 OVC012 71 69     93%   72 30.04        
Jun 02 08:05 E 3 5 Fog/Mist SCT004 OVC012 71 69     93%   72 30.04        
Jun 02 07:53 E 3 5 Fog/Mist BKN006 OVC012 71 69     93%   72 30.03 30.03      
Jun 02 07:25 3 3 Fog/Mist BKN006 OVC010 71 69     93%   72 30.03        
Jun 02 07:14 Calm 7 Cloudy BKN004 OVC011 71 69     93%   72 30.03        
Jun 02 07:04 Calm 7 Cloudy BKN006 OVC011 71 69     93%   72 30.03        
Jun 02 06:53 Calm 10 Cloudy OVC011 71 69     93%   72 30.03 30.02      
Jun 02 05:53 Calm 10 Cloudy FEW008 OVC013 71 68     90%   72 30.01 30      
Jun 02 05:13 Calm 10 Cloudy FEW003 OVC013 70 68     93%     30        
Jun 02 04:53 Calm 10 Cloudy FEW003 OVC018 70 69     97%     30 29.99      
Jun 02 04:15 E 3 10 Cloudy SCT003 OVC018 71 68     90%   72 30        
Jun 02 03:53 Calm 10 Cloudy BKN003 OVC015 71 69     93%   72 30.01 30      
Jun 02 02:53 Calm 4 Fog/Mist FEW002 OVC019 70 68     93%     30.01 30      
Jun 02 02:37 3 9 Cloudy SCT002 BKN019 OVC047 69 67     93%     30        
Jun 02 02:18 Calm 9 Mostly Cloudy FEW002 BKN047 69 67     93%     30        
Jun 02 01:53 Calm 10 Cloudy FEW017 OVC044 70 68     93%     30 29.99      
Jun 02 01:30 Calm 10 Cloudy FEW014 OVC040 70 68     93%     30        
Jun 02 01:00 Calm 10 Cloudy OVC016 70 68     93%     30.01        
Jun 02 00:53 Calm 10 Cloudy OVC014 69 67     93%     30.02 30.01      
Jun 01 23:53 NE 3 10 Cloudy OVC011 69 67     93%     30.02 30.01      
Jun 01 23:42 Calm 10 Cloudy OVC012 69 67     93%     30.02        
Jun 01 23:28 NE 3 2 Fog/Mist BKN012 68 66     93%     30.02        
Jun 01 22:53 Calm 4 Fog/Mist CLR 67 66     97%     30.01 30      
Jun 01 21:53 Calm 4 Fog/Mist CLR 69 67     93%     30.01 30      
Jun 01 20:53 3 10 Clear CLR 71 68     90%   72 30 29.99      
Jun 01 19:53 Calm 10 Mostly Clear FEW013 73 70     90%   74 30 29.99      
Jun 01 18:53 E 3 10 Mostly Clear FEW013 73 69     87%   74 30 29.99     1
Jun 01 17:53 5 10 Clear CLR 73 67     81%   74 30.01 30      
Jun 01 16:53 3 10 Mostly Cloudy BKN085 72 67     84%   73 30.02 30.01 0    
Jun 01 15:53 NE 7 10 Light Rain FEW070 BKN095 OVC110 71 67     87%   72 30.05 30.04 0 1  
Jun 01 14:53 Calm 4 Rain and Fog/Mist BKN090 OVC100 70 68     93%     30.06 30.05 0    
Jun 01 14:29 NW 3 7 Light Rain FEW060 BKN090 OVC100 69 67     93%     30.07   0    
Jun 01 14:09 10 3 Light Rain and Fog/Mist FEW007 BKN032 OVC075 69 67     93%     30.08   0    
Jun 01 14:07 E 8 3 Light Rain and Fog/Mist FEW007 BKN029 OVC075 69 67     93%     30.07   0    
Jun 01 14:04 7 2 Rain and Fog/Mist FEW007 BKN034 OVC065 69 67     93%     30.07   0    
Jun 01 13:59 S 6 1 Heavy Rain and Fog/Mist FEW007 BKN026 OVC041 69 67     93%     30.06   0    
Jun 01 13:53 S 8 0.75 Heavy Rain and Fog/Mist FEW007 BKN015 OVC039 69 67     93%     30.06 30.06 0    
Jun 01 13:49 11 1.5 Heavy Rain and Fog/Mist FEW007 BKN022 OVC060 70 66     88%     30.07   0    
Jun 01 13:36 11 5 Rain and Fog/Mist FEW008 BKN024 OVC055 71 68     90%   72 30.06   0    
Jun 01 13:17 E 3 4 Rain and Fog/Mist FEW005 BKN055 OVC100 74 72     94%   75 30.06   0    
Jun 01 13:02 E 5 4 Rain and Fog/Mist FEW007 BKN060 OVC110 74 72     94%   75 30.06   0    
Jun 01 12:53 3 5 Rain and Fog/Mist SCT007 BKN090 OVC110 74 72     94%   75 30.06 30.05 0   0
Jun 01 12:20 3 9 Light Rain BKN008 BKN024 OVC070 75 72     90%   76 30.06   0    
Jun 01 12:02 6 10 Light Rain SCT009 BKN027 OVC120 75 71     88%   76 30.07   0    
Jun 01 11:53 5 10 Cloudy SCT023 BKN036 OVC120 76 71     85%   77 30.08 30.06 0    
Jun 01 10:53 E 6 10 Cloudy FEW011 OVC100 76 70     82%   77 30.06 30.05      
Jun 01 10:16 7 10 Mostly Cloudy SCT008 BKN085 76 70     82%   77 30.07        
Jun 01 09:53 5 10 Mostly Cloudy BKN085 75 70     84%   76 30.07 30.06      
Jun 01 09:12 E 3 10 Partly Cloudy FEW007 SCT090 74 70     87%   75 30.07        
Jun 01 08:53 Calm 10 Mostly Cloudy SCT080 BKN090 73 69     87%   74 30.08 30.06      
Jun 01 07:53 3 10 Mostly Cloudy BKN090 71 68     90%   72 30.07 30.06      
Jun 01 06:53 Calm 10 Clear CLR 69 66     90%     30.06 30.05      
Jun 01 05:53 Calm 10 Clear CLR 68 66     93%     30.03 30.02      
Jun 01 04:53 Calm 10 Clear CLR 69 66     90%     30.03 30.02      
Jun 01 03:53 Calm 10 Clear CLR 68 66     93%     30.03 30.02      
Jun 01 02:53 3 10 Clear CLR 71 67     87%   72 30.03 30.02      
Jun 01 01:53 Calm 10 Clear CLR 70 67     90%     30.03 30.02      
Jun 01 00:53 Calm 10 Clear CLR 71 68     90%   72 30.05 30.03      
May 31 23:53 Calm 10 Clear CLR 71 68     90%   72 30.06 30.05      
May 31 22:53 Calm 10 Clear CLR 71 67     87%   72 30.06 30.05      
May 31 20:53 Calm 10 Clear CLR 76 69     79%   77 30.04 30.02      
May 31 19:53 Calm 10 Clear CLR 80 68     67%   83 30.03 30.02      
May 31 18:53 6 10 Clear CLR 84 66     55%   86 30.02 30.01      
May 31 17:53 7 10 Mostly Clear FEW044 86 65     50%   88 30.01 30      
May 31 16:53 6 10 Mostly Clear FEW047 86 64     48%   87 30.02 30.01      
May 31 15:53 E 7 10 Mostly Clear FEW046 87 64     46%   88 30.03 30.01      
May 31 14:53 6 10 Mostly Clear FEW043 87 64     46%   88 30.05 30.03      
May 31 13:53 E 6 10 Clear CLR 85 66     53%   87 30.06 30.05      
May 31 12:53 6 10 Clear   84 66     55%   86 30.08 30.07      
May 31 11:14 Calm 10 Partly Cloudy SCT028 80 66     62%   82 30.1        
May 31 10:53 Calm 10 Cloudy BKN024 OVC033 79 67     67%   80 30.1 30.09      
May 31 10:24 3 10 Mostly Cloudy BKN022 BKN028 79 67     67%   80 30.1        
May 31 09:53 Calm 10 Mostly Clear FEW018 78 67     69%   79 30.1 30.09      
May 31 08:53 Calm 10 Clear CLR 76 68     76%   77 30.11 30.1      
May 31 07:53 Calm 10 Clear CLR 70 66     87%     30.1 30.09      
May 31 06:53 Calm 10 Clear CLR 65 63     93%     30.09 30.09      
May 31 05:53 Calm 9 Clear CLR 64 62     93%     30.07 30.07      
May 31 04:53 Calm 10 Clear CLR 66 63     90%     30.06 30.05      
May 31 03:53 Calm 10 Clear CLR 66 64     93%     30.06 30.05      
May 31 02:53 Calm 10 Clear CLR 66 64     93%     30.07 30.05      
May 31 00:53 Calm 10 Clear CLR 69 66     90%     30.07 30.06      
May 30 23:53 S 3 10 Clear CLR 70 67     90%     30.07 30.06      
May 30 22:53 Calm 10 Clear CLR 69 67     93%     30.07 30.06      
May 30 21:53 Calm 10 Clear CLR 72 68     87%   73 30.05 30.04      
May 30 20:53 Calm 10 Clear CLR 74 68     82%   75 30.05 30.04      
May 30 19:53 Calm 10 Clear CLR 77 69     77%   78 30.05 30.04      
May 30 18:53 6 10 Clear CLR 79 67     67%   80 30.04 30.03      
May 30 17:53 8 10 Clear CLR 82 67     60%   85 30.02 30.01      
May 30 16:53 S 7 10 Mostly Clear FEW060 83 65     55%   85 30.03 30.02      
May 30 15:53 6 10 Clear CLR 87 56     35%   86 30.04 30.03      
May 30 14:53 N 3 10 Clear CLR 87        %     30.04 30.03      
May 30 13:53 3 10 Clear CLR 85 61     45%   85 30.05 30.03      
May 30 12:53 Calm 10 Clear CLR 84        %     30.08 30.07      
May 30 11:53 Calm 10 Clear CLR 82 62     51%   83 30.09 30.08      
May 30 10:53 Calm 10 Clear   81 65     58%   83 30.1 30.09      
May 30 09:53 3 10 Clear CLR 79 63     58%   79 30.11 30.09      
May 30 08:53 Calm 10 Clear CLR 76 68     76%   77 30.1 30.09      
May 30 06:53 Calm 7 Clear CLR 64 62     93%     30.09 30.08      
May 30 06:26 5 4 Fog/Mist CLR 62 61     96%     30.08        
May 30 06:11 3 2.5 Fog/Mist SCT002 62 60     93%     30.08        
May 30 06:09 NW 3 4 Fog/Mist BKN002 62 60     93%     30.08        
May 30 06:00 Calm 2 Fog/Mist BKN002 62 60     93%     30.08        
May 30 05:53 Calm 0.75 Fog/Mist VV001 61 60     97%     30.08 30.07      
May 30 05:51 NW 3 0.75 Fog/Mist VV001 63 61     94%     30.07        
May 30 05:41 NW 5 1.5 Fog/Mist BKN001 62 60     93%     30.07        
May 30 05:38 NW 3 6 Fog/Mist BKN001 62 60     93%     30.07        
May 30 05:29 Calm 5 Fog/Mist SCT001 62 60     93%     30.07        
May 30 04:53 Calm 5 Fog/Mist CLR 63 61     93%     30.06 30.06      
May 30 04:00 Calm 6 Fog/Mist CLR 63 62     97%     30.04        
May 30 03:53 Calm 2 Fog/Mist CLR 64 62     93%     30.04 30.03      
May 30 03:44 Calm 1.5 Fog/Mist CLR 64 62     93%     30.04        
May 30 02:53 Calm 5 Fog/Mist CLR 64 63     96%     30.04 30.03      
May 30 01:53 Calm 4 Fog/Mist CLR 65 63     93%     30.04 30.03      
May 30 00:53 Calm 6 Fog/Mist CLR 66 65     96%     30.05 30.04      
May 29 23:53 Calm 5 Fog/Mist CLR 68 66     93%     30.05 30.04      
May 29 22:53 Calm 10 Clear   70 68     93%     30.05 30.04      
May 29 19:53 Calm 10 Clear CLR 76 71     85%   77 30.01 30      
May 29 18:53 Calm 10 Clear CLR 78 70     76%   79 30 29.99      
May 29 17:53 NW 5 10 Mostly Clear FEW080 80 67     64%   82 30 29.99      
May 29 16:53 Calm 10 Clear CLR 79 68     69%   80 29.99 29.98